CDT,Max TemperatureF,Mean TemperatureF,Min TemperatureF,Max Dew PointF,MeanDew PointF,Min DewpointF,Max Humidity, Mean Humidity, Min Humidity, Max Sea Level PressureIn, Mean Sea Level PressureIn, Min Sea Level PressureIn, Max VisibilityMiles, Mean VisibilityMiles, Min VisibilityMiles, Max Wind SpeedMPH, Mean Wind SpeedMPH, Max Gust SpeedMPH,PrecipitationIn, CloudCover, Events, WindDirDegrees
2013-7-1,83,65,47,62,52,45,100,67,29,30.18,30.14,30.09,10,10,7,14,2,17,0.00,1,Thunderstorm,54
2013-7-2,79,64,50,60,54,50,100,72,38,30.15,30.11,30.06,10,9,3,9,2,,0.00,1,Thunderstorm,68
2013-7-3,79,62,45,59,50,43,100,67,29,30.12,30.06,30.00,10,10,1,8,1,,0.00,4,,96
2013-7-4,85,67,49,62,57,50,100,72,35,30.05,30.00,29.96,10,9,0,12,2,17,0.00,2,Fog,199
2013-7-5,87,69,51,63,57,51,100,64,31,30.01,29.97,29.93,10,9,2,14,3,21,0.00,0,,193
2013-7-6,90,76,62,65,62,59,98,62,38,29.98,29.95,29.90,10,10,7,10,4,,0.00,0,,187
2013-7-7,90,78,66,69,66,62,98,67,42,29.93,29.90,29.87,10,10,7,10,3,17,0.00,1,,187
2013-7-8,90,79,68,72,69,65,100,69,44,29.98,29.92,29.84,10,10,5,10,4,,0.00,4,Thunderstorm,275
2013-7-9,89,74,61,75,69,61,100,83,45,29.99,29.88,29.79,10,8,0,17,4,30,0.03,2,Fog-Rain-Thunderstorm,230
2013-7-10,81,68,54,70,55,47,100,58,31,30.04,29.97,29.85,10,10,7,20,8,26,0.00,2,,323
2013-7-11,86,67,49,61,54,48,100,68,29,30.13,30.08,30.04,10,9,5,9,2,,0.00,1,,260
2013-7-12,85,68,50,63,55,50,100,66,31,30.13,30.08,30.03,10,9,0,12,3,17,0.00,1,Fog,174
2013-7-13,84,70,55,62,57,53,100,68,35,30.13,30.09,30.04,10,10,10,13,3,17,0.00,2,,166
2013-7-14,89,71,54,65,60,54,100,68,32,30.22,30.18,30.14,10,10,5,9,2,,0.00,2,,190
2013-7-15,91,75,59,72,65,60,100,73,38,30.27,30.24,30.19,10,10,7,7,1,,0.00,3,,193
2013-7-16,94,80,65,76,70,64,100,78,38,30.26,30.23,30.21,10,8,3,15,3,30,0.09,2,Rain,238
2013-7-17,95,82,68,75,68,60,100,67,31,30.28,30.23,30.15,10,9,0,13,3,18,0.00,0,Fog,250
2013-7-18,96,82,68,73,68,64,100,63,34,30.15,30.01,29.84,10,10,5,14,4,24,0.00,1,,224
2013-7-19,91,76,60,75,63,53,100,59,28,29.87,29.79,29.75,10,10,7,18,7,28,0.14,1,Rain-Thunderstorm,259
2013-7-20,83,68,55,64,57,52,100,67,37,29.96,29.91,29.86,10,10,3,10,1,,0.00,3,,342
2013-7-21,72,66,58,68,63,58,100,95,75,30.00,29.94,29.89,10,9,0,15,4,18,0.78,5,Fog-Rain-Thunderstorm,82
2013-7-22,86,70,54,76,64,54,100,83,54,29.89,29.76,29.66,10,7,0,15,3,23,0.08,4,Fog-Rain-Thunderstorm,223
2013-7-23,73,62,51,61,53,48,100,65,41,30.02,29.92,29.78,10,10,10,13,6,18,0.01,3,,350
2013-7-24,77,60,43,59,49,41,100,73,29,30.11,30.05,30.01,10,9,0,7,1,,0.00,4,Fog,266
2013-7-25,80,64,47,68,59,48,100,88,56,30.03,29.99,29.94,10,10,5,10,2,18,0.12,5,Rain-Thunderstorm,210
2013-7-26,76,66,57,67,57,47,100,76,43,30.00,29.92,29.89,10,9,5,17,5,25,0.00,6,,293
2013-7-27,60,54,47,54,47,42,100,80,56,30.01,29.94,29.88,10,10,2,14,7,22,0.13,7,Rain,300
2013-7-28,68,58,49,58,51,49,100,83,52,30.05,29.95,29.88,10,10,2,12,5,20,0.00,7,,300
2013-7-29,78,60,42,58,50,42,100,71,39,30.15,30.11,30.06,10,10,10,8,1,,0.00,1,,284
2013-7-30,78,64,51,63,57,51,100,77,46,30.16,30.11,30.06,10,10,10,7,1,,0.00,7,,183
2013-7-31,78,66,53,66,62,53,100,83,52,30.07,30.02,29.96,10,9,0,12,2,21,0.05,6,Fog-Rain,275